Volver al catálogo

STARLINK-37984

ActivoComunicacionesVLEO
NORAD 100044·PAYLOAD·🇺🇸 United States

Lanzado Jul 14, 2026 desde Cape Canaveral Space Force Station

Loading…

Próximos Pases (próximas 24 horas)

TLE

ActualizadoSource: Space-Track

Época: Sep 14, 2026, 21:08 UTC

1 A0044U 26161S   26257.88084130  .00020548  00000-0  61740-3 0  9998
2 A0044  53.1613  24.2848 0001497  62.3116 297.8039 15.34411479  9744

Sigue STARLINK-37984 en tiempo real con AllMySat

Download on the App Store